• In Uzbekistan
  • List of Countries
  • For 7 days
  • Water Temperature
  • Satellite Maps
  • Weather Map
  • Weather Widgets
  • user-avatar
    Login

    Hourly Weather Stepanakert

    Today, 25 March, Saturday

    Time Temperature Precipitation Wind Pressure Humidity
    00:00 +1°C° 0 mm 1 mps 696 mmHg 95%
    01:00 0°C° 0 mm 0 mps 695 mmHg 94%
    02:00 -1°C° 0 mm 0 mps 695 mmHg 94%
    03:00 -1°C° 0 mm 0 mps 695 mmHg 94%
    04:00 -1°C° 0 mm 0 mps 694 mmHg 94%
    05:00 -1°C° 0 mm 0 mps 694 mmHg 94%
    06:00 -1°C° 0 mm 0 mps 694 mmHg 95%
    07:00 +2°C° 0 mm 1 mps 694 mmHg 85%
    08:00 +5°C° 0 mm 1 mps 694 mmHg 75%
    09:00 +7°C° 0 mm 1 mps 695 mmHg 65%
    10:00 +9°C° 0 mm 1 mps 694 mmHg 62%
    11:00 +9°C° 0 mm 2 mps 694 mmHg 59%
    12:00 +10°C° 0 mm 2 mps 694 mmHg 55%
    13:00 +10°C° 0 mm 2 mps 693 mmHg 55%
    14:00 +12°C° 0 mm 2 mps 692 mmHg 56%
    15:00 +12°C° 0 mm 2 mps 692 mmHg 56%
    16:00 +10°C° 0 mm 1 mps 691 mmHg 63%
    17:00 +8°C° 0 mm 1 mps 691 mmHg 70%
    18:00 +6°C° 0 mm 1 mps 691 mmHg 77%
    19:00 +6°C° 0 mm 1 mps 691 mmHg 80%
    20:00 +5°C° 0 mm 1 mps 691 mmHg 82%
    21:00 +4°C° 0 mm 1 mps 691 mmHg 85%
    22:00 +4°C° 0 mm 1 mps 691 mmHg 84%
    23:00 +4°C° 0 mm 1 mps 691 mmHg 84%

    Tomorrow, 26 March, Sunday

    Time Temperature Precipitation Wind Pressure Humidity
    00:00 +4°C° 0 mm 1 mps 691 mmHg 84%
    01:00 +4°C° 0 mm 1 mps 691 mmHg 83%
    02:00 +3°C° 0 mm 1 mps 691 mmHg 82%
    03:00 +3°C° 0 mm 1 mps 690 mmHg 82%
    04:00 +3°C° 0 mm 1 mps 690 mmHg 80%
    05:00 +3°C° 0 mm 1 mps 690 mmHg 78%
    06:00 +3°C° 0 mm 1 mps 690 mmHg 77%
    07:00 +6°C° 0 mm 1 mps 691 mmHg 68%
    08:00 +8°C° 0 mm 1 mps 691 mmHg 59%
    09:00 +11°C° 0 mm 1 mps 692 mmHg 50%
    10:00 +12°C° 0 mm 1 mps 691 mmHg 47%
    11:00 +13°C° 0 mm 2 mps 691 mmHg 44%
    12:00 +14°C° 0 mm 2 mps 691 mmHg 41%
    13:00 +15°C° 0 mm 2 mps 691 mmHg 41%
    14:00 +15°C° 0 mm 2 mps 690 mmHg 42%
    15:00 +15°C° 0 mm 2 mps 690 mmHg 42%
    16:00 +13°C° 0 mm 1 mps 690 mmHg 50%
    17:00 +11°C° 0 mm 1 mps 690 mmHg 59%
    18:00 +9°C° 0 mm 1 mps 689 mmHg 68%
    19:00 +8°C° 0 mm 1 mps 690 mmHg 69%
    20:00 +8°C° 0 mm 1 mps 690 mmHg 69%
    21:00 +7°C° 0 mm 1 mps 691 mmHg 70%
    22:00 +6°C° 0 mm 2 mps 691 mmHg 67%
    23:00 +6°C° 0 mm 2 mps 691 mmHg 65%

    Day after tomorrow, 27 March, Monday

    Time Temperature Precipitation Wind Pressure Humidity
    00:00 +6°C° 0 mm 2 mps 691 mmHg 62%
    01:00 +5°C° 0 mm 2 mps 691 mmHg 61%
    02:00 +5°C° 0 mm 2 mps 691 mmHg 60%
    03:00 +5°C° 0 mm 2 mps 690 mmHg 59%
    04:00 +5°C° 0 mm 2 mps 690 mmHg 58%
    05:00 +5°C° 0 mm 2 mps 690 mmHg 58%
    06:00 +5°C° 0 mm 2 mps 690 mmHg 58%
    07:00 +7°C° 0 mm 2 mps 691 mmHg 51%
    08:00 +10°C° 0 mm 2 mps 691 mmHg 44%
    09:00 +14°C° 0 mm 1 mps 692 mmHg 38%
    10:00 +15°C° 0 mm 1 mps 691 mmHg 36%
    11:00 +16°C° 0 mm 2 mps 691 mmHg 35%
    12:00 +17°C° 0 mm 2 mps 691 mmHg 33%
    13:00 +17°C° 0 mm 2 mps 690 mmHg 33%
    14:00 +17°C° 0 mm 2 mps 690 mmHg 33%
    15:00 +18°C° 0 mm 2 mps 689 mmHg 33%
    16:00 +15°C° 0 mm 2 mps 689 mmHg 41%
    17:00 +13°C° 0 mm 1 mps 689 mmHg 48%
    18:00 +11°C° 0 mm 1 mps 688 mmHg 55%
    19:00 +10°C° 0 mm 1 mps 689 mmHg 57%
    20:00 +9°C° 0 mm 2 mps 689 mmHg 58%
    21:00 +8°C° 0 mm 2 mps 689 mmHg 59%
    22:00 +8°C° 0 mm 2 mps 689 mmHg 60%
    23:00 +7°C° 0 mm 2 mps 689 mmHg 60%

    28 March, Tuesday

    Time Temperature Precipitation Wind Pressure Humidity
    00:00 +7°C° 0 mm 2 mps 689 mmHg 61%
    01:00 +7°C° 0 mm 2 mps 689 mmHg 62%
    02:00 +6°C° 0 mm 2 mps 688 mmHg 63%
    03:00 +6°C° 0 mm 2 mps 688 mmHg 63%
    04:00 +6°C° 0 mm 2 mps 688 mmHg 64%
    05:00 +6°C° 0 mm 2 mps 688 mmHg 64%
    06:00 +6°C° 0 mm 2 mps 688 mmHg 65%
    07:00 +8°C° 0 mm 2 mps 688 mmHg 56%
    08:00 +12°C° 0 mm 2 mps 689 mmHg 48%
    09:00 +15°C° 0 mm 2 mps 689 mmHg 40%
    10:00 +16°C° 0 mm 2 mps 689 mmHg 38%
    11:00 +17°C° 0 mm 3 mps 688 mmHg 35%
    12:00 +19°C° 0 mm 3 mps 688 mmHg 33%
    13:00 +18°C° 0.1 mm 3 mps 688 mmHg 34%
    14:00 +18°C° 0.1 mm 3 mps 688 mmHg 36%
    15:00 +18°C° 0.1 mm 3 mps 688 mmHg 38%
    16:00 +16°C° 0.1 mm 3 mps 688 mmHg 46%
    17:00 +13°C° 0.1 mm 3 mps 689 mmHg 54%
    18:00 +11°C° 0.1 mm 3 mps 689 mmHg 62%
    19:00 +10°C° 0.1 mm 3 mps 689 mmHg 66%
    20:00 +9°C° 0.1 mm 2 mps 690 mmHg 70%
    21:00 +8°C° 0.1 mm 2 mps 691 mmHg 74%
    22:00 +8°C° 0.1 mm 2 mps 691 mmHg 75%
    23:00 +8°C° 0.1 mm 1 mps 691 mmHg 76%

    29 March, Wednesday

    Time Temperature Precipitation Wind Pressure Humidity
    00:00 +8°C° 0.1 mm 1 mps 691 mmHg 76%
    01:00 +8°C° 0.1 mm 1 mps 691 mmHg 77%
    02:00 +7°C° 0.1 mm 1 mps 691 mmHg 78%
    03:00 +7°C° 0.1 mm 1 mps 691 mmHg 79%
    04:00 +6°C° 0 mm 1 mps 691 mmHg 80%
    05:00 +6°C° 0 mm 1 mps 691 mmHg 81%
    06:00 +5°C° 0 mm 1 mps 691 mmHg 81%
    07:00 +6°C° 0 mm 2 mps 692 mmHg 73%
    08:00 +8°C° 0 mm 2 mps 692 mmHg 65%
    09:00 +9°C° 0 mm 2 mps 693 mmHg 57%
    10:00 +10°C° 0 mm 3 mps 693 mmHg 54%
    11:00 +11°C° 0 mm 3 mps 693 mmHg 52%
    12:00 +12°C° 0 mm 3 mps 692 mmHg 49%
    13:00 +13°C° 0 mm 3 mps 692 mmHg 49%
    14:00 +13°C° 0 mm 3 mps 692 mmHg 48%
    15:00 +13°C° 0 mm 3 mps 692 mmHg 48%
    16:00 +13°C° 0 mm 2 mps 692 mmHg 53%
    17:00 +10°C° 0 mm 2 mps 693 mmHg 59%
    18:00 +10°C° 0 mm 1 mps 693 mmHg 65%
    19:00 +9°C° 0 mm 1 mps 694 mmHg 69%
    20:00 +8°C° 0 mm 1 mps 694 mmHg 73%
    21:00 +7°C° 0 mm 1 mps 695 mmHg 77%
    22:00 +6°C° 0 mm 1 mps 695 mmHg 81%
    23:00 +6°C° 0 mm 1 mps 696 mmHg 84%

    30 March, Thursday

    Time Temperature Precipitation Wind Pressure Humidity
    00:00 +4°C° 0 mm 2 mps 696 mmHg 88%
    01:00 +5°C° 0 mm 1 mps 696 mmHg 89%
    02:00 +5°C° 0 mm 1 mps 696 mmHg 90%
    03:00 +5°C° 0 mm 1 mps 697 mmHg 91%
    04:00 +5°C° 0 mm 1 mps 697 mmHg 91%
    05:00 +5°C° 0 mm 1 mps 697 mmHg 91%
    06:00 +5°C° 0 mm 1 mps 697 mmHg 91%
    07:00 +5°C° 0 mm 2 mps 698 mmHg 86%
    08:00 +6°C° 0 mm 2 mps 698 mmHg 81%
    09:00 +7°C° 0 mm 2 mps 698 mmHg 76%
    10:00 +7°C° 0 mm 2 mps 697 mmHg 75%
    11:00 +8°C° 0 mm 2 mps 697 mmHg 73%
    12:00 +8°C° 0 mm 2 mps 696 mmHg 71%
    13:00 +9°C° 0 mm 2 mps 696 mmHg 70%
    14:00 +9°C° 0 mm 2 mps 695 mmHg 69%
    15:00 +9°C° 0 mm 2 mps 694 mmHg 68%
    16:00 +9°C° 0 mm 2 mps 694 mmHg 73%
    17:00 +9°C° 0 mm 1 mps 694 mmHg 77%
    18:00 +8°C° 0 mm 1 mps 694 mmHg 82%
    19:00 +7°C° 0 mm 1 mps 694 mmHg 85%
    20:00 +6°C° 0 mm 1 mps 694 mmHg 88%
    21:00 +4°C° 0 mm 0 mps 694 mmHg 90%
    22:00 +3°C° 0 mm 0 mps 694 mmHg 90%
    23:00 +4°C° 0 mm 1 mps 693 mmHg 90%
    Show more